This demonstration page uses our WeatherBlox Daily Observations layout. Learn more.

39.92423, -83.80882

Hourly Observations for May 14, 2017

Temp ( °F °C ) Dew Point ( °F °C ) Humidity (%) Winds ( mph kmh ) Pressure ( in mb ) Visibility ( mi km ) Precip ( " mm )
12:56 am 00:56 Clear 58 14.4 46 7.8 65 65 SW 7 11 29.84 1010 10 16.0934 0 0
1:56 am 01:56 Clear 56 13.3 46 7.8 70 70 SW 7 11 29.84 1010 10 16.0934 0 0
2:56 am 02:56 Clear 54 12.2 47 8.3 77 77 WSW 6 9 29.83 1010 10 16.0934 0 0
3:56 am 03:56 Clear 52 11.1 47 8.3 83 83 SW 7 11 29.84 1010 10 16.0934 0 0
4:56 am 04:56 Clear 52 11.1 47 8.3 83 83 SW 8 13 29.85 1011 10 16.0934 0 0
5:56 am 05:56 Clear 51 10.6 47 8.3 86 86 SW 6 9 29.85 1011 10 16.0934 0 0
6:56 am 06:56 Sunny 52 11.1 48 8.9 86 86 SW 3 6 29.86 1011 10 16.0934 0 0
7:56 am 07:56 Sunny 58 14.4 52 11.1 81 81 WSW 6 9 29.88 1012 10 16.0934 0 0
8:56 am 08:56 Sunny 63 17.2 53 11.7 70 70 W 8 13 29.89 1012 10 16.0934 0 0
9:56 am 09:56 Sunny 68 20 54 12.2 61 61 W 10 17 29.9 1012 10 16.0934 0 0
10:56 am 10:56 Sunny 72 22.2 53 11.7 52 52 W 13 20 29.91 1013 10 16.0934 0 0
11:56 am 11:56 Sunny 75 23.9 50 10 41 41 WNW 16 26 29.91 1013 10 16.0934 0 0
12:56 pm 12:56 Sunny 78 25.6 51 10.6 39 39 W 15 24 29.9 1013 10 16.0934 0 0
1:56 pm 13:56 Sunny 80 26.7 51 10.6 37 37 WNW 24 39 29.89 1012 10 16.0934 0 0
2:56 pm 14:56 Partly Cloudy 81 27.2 52 11.1 37 37 WNW 17 28 29.88 1012 10 16.0934 0 0
3:56 pm 15:56 Mostly Cloudy 81 27.2 52 11.1 37 37 WNW 14 22 29.87 1012 10 16.0934 0 0
4:56 pm 16:56 Partly Cloudy 80 26.7 51 10.6 37 37 WNW 23 37 29.86 1011 10 16.0934 0 0
5:56 pm 17:56 Mostly Cloudy 80 26.7 51 10.6 37 37 W 21 33 29.85 1011 10 16.0934 0 0
6:56 pm 18:56 Mostly Sunny 78 25.6 52 11.1 40 40 WNW 18 30 29.86 1011 10 16.0934 0 0
7:56 pm 19:56 Mostly Cloudy 76 24.4 53 11.7 45 45 WNW 9 15 29.85 1011 10 16.0934 0 0
8:56 pm 20:56 Cloudy 74 23.3 53 11.7 48 48 NNW 7 11 29.86 1011 10 16.0934 0 0
9:56 pm 21:56 Partly Cloudy 70 21.1 53 11.7 55 55 NNW 5 7 29.88 1012 10 16.0934 0 0
10:56 pm 22:56 Mostly Clear 66 18.9 52 11.1 61 61 NE 13 20 29.91 1013 10 16.0934 0 0
11:56 pm 23:56 Partly Cloudy 60 15.6 51 10.6 72 72 ENE 8 13 29.94 1014 10 16.0934 0 0

Powered by AerisWeather